User: anonymous
Location: Waning Moon II Observatory
(30.3730°N, 89.7620°W)
Time: 04:04:01
(UTC-05:00)
Language:

Cosmos 1825 Rocket - Orbit

View from above orbital plane
View from above orbital plane
View from above satellite
View from above satellite

Ground track
Ground track

The orbit data is extracted from the following two-line orbital elements,

1 17567U 87024B   14209.81311778  .00000219  00000-0  23928-4 0  4163
2 17567 082.5296 105.5747 0018698 219.3084 205.5284 14.83104075480155
Epoch (UTC): 28 July 2014 19:30:53
Eccentricity: 0.0018698
inclination: 82.5296°
perigee height: 606 km
apogee height: 632 km
right ascension of ascending node: 105.5747°
argument of perigee: 219.3084°
revolutions per day: 14.83104075
mean anomaly at epoch: 205.5284°
orbit number at epoch: 48015

The dashed part of the orbit path shows where the satellite is in the earth's shadow,  

DLR